Regional Weather Roundup
Issued by NWS Midland/Odessa, TX

Skip options and go directly to product.
Home | Oldest Version | Next Version | Current Version | All | Text Only | Save Text | Print | Product List | Glossary On

Skip product version selection by date and time.   
493
ASUS44 KMAF 290102
RWRMAF
MIDLAND AREA WEATHER ROUNDUP
NATIONAL WEATHER SERVICE MIDLAND TX
800 PM CDT MON JUL 28 2014

...IN SOUTHWEST TEXAS AND SOUTHEAST NEW MEXICO...

CITY           SKY/WX    TMP DP  RH WIND       PRES   REMARKS
ALPINE         PTCLDY    84  53  33 SE14      30.25S
ANDREWS        FAIR      87  63  44 E17G26    30.15S
ARTESIA        MOSUNNY   91  55  29 E15       30.13S
BIG SPRING     PTCLDY    88  61  40 E20       30.15R
CARLSBAD       MOSUNNY   94  53  25 E13G24    30.09F
DRYDEN           N/A     97  51  21 E14       30.05S
FORT STOCKTON  PTCLDY    92  54  27 SE14      30.10R
GUAD PASS      SUNNY     82  49  31 E15       30.28F
HOBBS          PTCLDY    86  59  39 E16G23    30.19S
MARFA          CLOUDY    81  57  44 E10       30.24S
MIDLAND AIRPK  PTCLDY    88  62  41 E18G24    30.13S
MIDLAND INTL   CLEAR     88  64  44 E23G31    30.12S
ODESSA         CLEAR     88  63  43 E22G29    30.13R
PECOS          MOCLDY    97  54  23 E15G22    30.05S
PRESIDIO       FAIR      91  58  32 N3        30.03F
SEMINOLE       PTCLDY    87  60  40 E18       30.18S
SNYDER         PTCLDY    86  64  47 E13       30.15R
WINK           PTCLDY    95  59  30 E17       30.06R
$$
...OTHER STATIONS IN TEXAS...

CITY           SKY/WX    TMP DP  RH WIND       PRES   REMARKS
ABILENE        MOCLDY    88  63  43 E15       30.11F
AMARILLO       MOCLDY    75  63  66 SE9       30.26S
AUSTIN         PTCLDY    94  64  37 E6        30.00F
BROWNSVILLE    CLEAR     85  73  67 SE16      30.03R
CORPUS CHRISTI MOCLDY    87  71  58 SE17      30.03R
DALLAS FTW     MOCLDY    88  61  40 NE12      30.07S
DEL RIO        CLEAR     96  61  31 E9        29.97F
EL PASO        PTSUNNY   90  53  28 E13       30.11F
HOUSTON INT    PTCLDY    92  69  47 NE7       30.02R
LUBBOCK        PTCLDY    82  63  52 E15       30.21R
SAN ANGELO     CLEAR     89  66  46 E20G29    30.07R
SAN ANTONIO    PTCLDY    94  64  37 VRB3      30.02F
WACO           CLOUDY    81  70  69 NE8       30.06S
WICHITA FALLS  NOT AVBL
$$
...OTHER LOCATIONS IN NEW MEXICO...

CITY           SKY/WX    TMP DP  RH WIND       PRES   REMARKS
ALAMAGORDO     PTSUNNY   86  55  35 S3        30.17F
ALBUQUERQUE    PTSUNNY   82  51  34 S6        30.27S
CANNON AFB     PTSUNNY   78  62  58 E13       30.27R
CLOVIS         NOT AVBL
HOLLOMAN AFB   MOSUNNY   86  57  37 NE3       30.15F
ROSWELL        MOSUNNY   91  54  28 SE9       30.15S
RUIDOSO        CLOUDY    66  57  72 CALM      30.43S
SANTA FE       PTSUNNY   71  55  56 S10       30.35R
TRUTH OR CONSE CLOUDY    81  56  42 NW15      30.21F
TUCUMCARI      CLOUDY    78  56  46 S5        30.24F
$$

USA.gov is the U.S. government's official web portal to all federal, state and local government web resources and services.